Погода в Полтавке

Погода в Полтавке : погода сейчас, прогноз погоды и архив. Всё, что Вы хотите узнать о погоде в Полтавке!

Хотите узнать прогноз погоды в Полтавке? Тогда Вам сюда: Погода в Полтавке

Поиск расширенной информации на нашем сайте:

Другие новости

Новости СМИ2

Главная страница сайта

Новости сайта

03.07.2017

Напоминаем, что на нашем специализированном сайте Метеоцентр.Азия вы можете получить высокодетализированные автоматические прогнозы погоды по пунктам России, СНГ и мира в авиационном формате (включающие направление и скорость ветра, видимость, явления погоды, количество и форму облачности, нижнюю и верхнюю границу облачности).


Погода в Полтавке - сегодня

Время (UTC), дата Ветер
(°,м/с) 
Видим.   Явления Облачность Т
(°С)
Тd
(°С)
f(%) Тe
(°С)
Pmin
(гПа)
dP
(гПа)
Po
(мм)
O2
(г/м3)
Тmin Tmax R s Состояние
почвы
21 17.05.18 010 (С) 20000 м    3/0 верхняя 
[Ci fib]
+2.2 -8.6 45 +2  1021.3  0.5  754  302  -3.8        сухая 
00 18.05.18 230 (ЮЗ) 20000 м    9/5 600 м кучево-дожд., средняя, верхняя 
[Cb calv|Ac trans|Ci sp]
+3.7 -4 57 +2  1011.5  -2.5  747  297           
03 18.05.18 010 (С) 20000 м    3/0 верхняя 
[Ci fib]
+2.2 -8.6 45 +2  1021.3  0.5  754  302  -3.8        сухая 
06 18.05.18 010 (С) 20000 м    3/0 верхняя 
[Ci fib]
+2.2 -8.6 45 +2  1021.3  0.5  754  302  -3.8        сухая 
09 18.05.18 010 (С) 20000 м    3/0 верхняя 
[Ci fib]
+2.2 -8.6 45 +2  1021.3  0.5  754  302  -3.8        сухая 
18 18.05.18 340 (С) 10 км    ясно 
+1.3 -8.3 49 -1  1021  754  303           
21 18.05.18 330 (СЗ) 10 км    ясно 
-1.7 -7.4 65 -4  1023  1.9  755  307           
00 19.05.18 330 (СЗ) 20000 м    ясно 
-1.9 -7.1 68 -4  1025.6  2.6  757  308           
03 19.05.18 330 (СЗ) 20000 м    ясно 
+3.4 -8.1 43 +2  1027.2  1.8  759  303  -2.6        сухая 
06 19.05.18 340 (С) 20000 м    ясно 
+7.6 -12.2 23 +6  1027.6  0.7  759  299           
09 19.05.18 320 (СЗ) 20000 м    ясно 
+11.4 -12.2 18 +11  1027.4  -0.1  759  295           
12 19.05.18 300 (СЗ) 20000 м    3/0 верхняя 
[Ci sp]
+13.1 -13 15 +13  1026.6  -0.7  759  293           
15 19.05.18 250 (З) 20000 м    3/0 верхняя 
[Ci sp]
+10.2 -10.3 22 +11  1026.4  -0.4  758  296    +13.3       
18 19.05.18 170 (Ю) 10 км    10/0 верхняя 
[Ci fib]
+2.7 -7.6 47 +2  1026.4  -0.4  758  303           
21 19.05.18 170 (Ю) 1000 м    10/0 средняя 
[Ac As]
+7.1 -6.4 38 +6  1025.3  -0.9  757  298           
00 20.05.18 170 (Ю) 20000 м  {дождь}  10/0 средняя 
[Ac As]
+6.4 -0.8 60 +5  1024.4  -0.8  757  298           
03 20.05.18 200 (Ю) 20000 м    10/0 средняя 
[Ac As]
+11.3 -0.3 45 +10  1023.1  -1.1  756  293  +0.6    0.4    сухая 
15 20.05.18 240 (ЮЗ) 5{11}  20000 м    4/0 средняя, верхняя 
[Ac trans|Ci sp]
+22.5 +4.4 31 +23  1014  -0.5  750  278    +26.4  0.5     
18 20.05.18 230 (ЮЗ) 10 км    6/0 средняя, верхняя 
[Ac trans|Ci sp]
+18 +4.9 42 +18  1014  -0.3  750  283           
21 20.05.18 240 (ЮЗ) 10 км    10/0 средняя 
[Ac und]
+18.4 +4.2 39 +19  1012.9  -1  749  282           
00 21.05.18 230 (ЮЗ) 3{17}  20000 м    6/3 600 м кучево-дожд., средняя, верхняя 
[Cb calv|Ac trans|Ci fib]
+17.7 +5.9 46 +18  1012.7  -0.3  749  282           
03 21.05.18 270 (З) 6{12}  20000 м    5/0 средняя, верхняя 
[Ac trans|Ci sp]
+21.8 +5.6 35 +22  1012.8  0.3  749  279  +15.9         
15 21.05.18 010 (С) 4{12}  20000 м    10/3 600 м кучево-дожд., верхняя 
[Cb calv|Ci sp]
+21.1 +9.6 48 +22  1012.9  749  278    +28.1       
18 21.05.18 290 (З) 10 км    10/4 600 м кучево-дожд., средняя, верхняя 
[Cb calv|Ac trans|Ci sp]
+15.2 +10.6 74 +19  1014.4  1.2  750  284           
21 21.05.18 010 (С) 10 км    8/3 600 м кучево-дожд., верхняя 
[Cb calv|Ci sp]
+11.4 +5.9 69 +10  1014.4  -0.2  750  289           
Время (UTC), дата Ветер
(°,м/с) 
Видим.   Явления Облачность Т
(°С)
Тd
(°С)
f(%) Тe
(°С)
Pmin
(гПа)
dP
(гПа)
Po
(мм)
O2
(г/м3)
Тmin Tmax R s Состояние
почвы

Для получения пояснительной информации подведите курсор к названию столбца.

ПОГОДА в Полтавке - архив

Всё, что Вы хотите узнать о погоде в Полтавке - удобно и подробно!

Выберите нужную дату (начиная с 1 января 2015* года) и нажмите кнопку "Найти".
Будут отображены архивные сводки погоды по пункту Полтавка, начиная с указанной даты.


Отображать данные в формате CSV (для использования в таблицах Excel)


Внимание! Наш архив погоды предназначен исключительно для личного некоммерческого использования в познавательных целях. Если Вам необходимы официальные справки о состоянии погоды (для производственных, юридических, коммерческих и т.п. целей), обращайтесь в органы Росгидромета.

*Примечание: данная дата относится к архиву по метеостанциям СССР (Россия, СНГ, Балтия).
Архив по метеостанциям Зарубежной Европы и Азии (кроме Китая) хранится 10 дней, по другим регионам земного шара (Китай, Африка, Америка, Австралия, Океания) - 1 день.

Полтавка - район местоположения метеостанции


Название, широта, долгота, высота метеостанции:
Полтавка 54.4°ш. 71.8°д. 125 м над ур. моря [Российская Федерация]

Дополнительная информация

В oтличие oт бoльшинства пoгoдных сайтoв мы публикуем пoдрoбную метеoинфoрмацию в детальнoм прoфессиoнальнoм фoрмате.

Характеристики температуры и влажнoсти вoздуха измеряются на высoте 2 м в тени вдали oт зданий и деревьев.
Скoрoсть ветра измеряется на высoте 10 м (на урoвне рoста челoвека скoрoсть ветра ниже в 1.5-2 раза). Если метеoстанция нахoдится в гoрoде или в лесу, тo скoрoсть ветра занижена на 2-4 м/с пo сравнению с oткрытым местoм. Скoрoсть ветра над акватoриями крупных рек и oзёр, а также на вершинах хoлмoв на 2-5 м/с выше, чем в oбычных услoвиях.
Атмoсфернoе давление в разных тoчках местнoсти мoжет значительнo oтличаться oт давления на метеoстанции, в зависимoсти oт услoвий рельефа (при пoдъёме на 10 м давление пoнижается примернo на 1 мм рт.ст.).